Weather History for KMLP - June, 2013

Change the Weather History Date:

Wednesday, June 19, 2013

  Actual Average (K3TH) Record (K3TH)
Temperature  
Mean Temperature 40 °F -  
Max Temperature 44 °F 70 °F 79 °F (2001)
Min Temperature 37 °F 51 °F 48 °F (1998)
Degree Days  
Heating Degree Days 24    
Moisture  
Dew Point 40 °F    
Average Humidity 100    
Maximum Humidity 100    
Minimum Humidity 93    
Precipitation  
Precipitation 0.99 in - - ()
Sea Level Pressure  
Sea Level Pressure 29.78 in    
Wind  
Wind Speed 5 mph (NNW)    
Max Wind Speed 12 mph    
Max Gust Speed 23 mph    
Visibility 1 miles    
Events Fog , Rain    
Averages and records for this station are not official NWS values.
T = Trace of Precipitation, MM = Missing Value Source: NWS Daily Summary

Daily Weather History Graph

Daily Weather History Graph

Search for Another Location

Airport or City:

Trip Planner

Search our weather history database for the weather conditions in past years. The results will help you decide how hot, cold, wet, or windy it might be!

Date:

Astronomy

Jun. 19, 2013 Rise Set
Actual Time 4:45 AM PDT 8:43 PM PDT
Civil Twilight 4:04 AM PDT 9:23 PM PDT
Nautical Twilight 3:08 AM PDT 10:19 PM PDT
Astronomical Twilight 1:40 AM PDT 11:48 PM PDT
Moon 4:29 PM PDT (6/19) 1:46 AM PDT (6/19)
Length of Visible Light 17h 18m
Length of Day
15h 57m
Waxing Gibbous, 81% of the Moon is Illuminated
Jun 19
Waxing Gibbous
Jun 23
Full
Jun 29
Last Quarter
Jul 8
New
Jul 15
First Quarter

Hourly Weather History & Observations

Time (PDT) Temp. Windchill Dew Point Humidity Pressure Visibility Wind Dir Wind Speed Gust Speed Precip Events Conditions
12:45 AM 44.6 °F 42.2 °F 44.6 °F 100% 29.85 in 0.5 mi Variable 4.6 mph - 0.00 in Fog , Rain Light Rain
12:53 AM 44.1 °F 40.8 °F 43.0 °F 96% 29.63 in 0.2 mi Variable 5.8 mph - 0.00 in Fog , Rain Light Rain
1:53 AM 43.0 °F 38.8 °F 43.0 °F 100% 29.60 in 0.2 mi Variable 6.9 mph - 0.18 in Fog , Rain Light Rain
2:20 AM 42.8 °F 38.6 °F 42.8 °F 100% 29.85 in 0.2 mi Variable 6.9 mph 17.3 mph 0.10 in Fog , Rain Heavy Rain
2:30 AM 42.8 °F 38.0 °F 42.8 °F 100% 29.85 in 0.2 mi NW 8.1 mph 19.6 mph 0.10 in Fog , Rain Light Rain
2:53 AM 42.1 °F 36.6 °F 42.1 °F 100% 29.61 in 0.2 mi NW 9.2 mph 18.4 mph 0.11 in Fog , Rain Light Rain
3:53 AM 41.0 °F 34.3 °F 41.0 °F 100% 29.59 in 0.2 mi NNW 11.5 mph 23.0 mph 0.00 in Fog Fog
4:34 AM 41.0 °F 35.2 °F 41.0 °F 100% 29.81 in 0.5 mi NNW 9.2 mph - N/A Fog Fog
4:40 AM 41.0 °F - 41.0 °F 100% 29.83 in 0.2 mi Calm Calm - N/A Fog Fog
4:53 AM 41.0 °F 37.1 °F 41.0 °F 100% 29.60 in - Variable 5.8 mph - N/A   Overcast
5:53 AM 41.0 °F 35.2 °F 41.0 °F 100% 29.62 in - NW 9.2 mph 20.7 mph 0.04 in Rain Light Rain
6:00 AM 39.2 °F 33.0 °F 39.2 °F 100% 29.82 in 0.2 mi NW 9.2 mph 19.6 mph 0.01 in Fog , Rain Light Rain
6:10 AM 39.2 °F 33.0 °F 39.2 °F 100% 29.83 in 0.5 mi NW 9.2 mph 16.1 mph 0.02 in Fog , Rain Light Rain
6:17 AM 39.2 °F 33.6 °F 39.2 °F 100% 29.82 in 0.2 mi NNW 8.1 mph 16.1 mph 0.03 in Fog , Rain Rain
6:29 AM 39.2 °F 33.6 °F 39.2 °F 100% 29.82 in 0.5 mi NNW 8.1 mph - 0.03 in Fog , Rain Light Rain
6:33 AM 39.2 °F 33.0 °F 39.2 °F 100% 29.82 in 0.2 mi NNW 9.2 mph 16.1 mph 0.04 in Fog , Rain Light Rain
6:49 AM 39.2 °F 33.6 °F 39.2 °F 100% 29.82 in 0.2 mi NNW 8.1 mph - 0.04 in Fog , Rain Light Rain
6:53 AM 39.0 °F 32.8 °F 39.0 °F 100% 29.62 in 0.2 mi NNW 9.2 mph - 0.04 in Fog , Rain Light Rain
7:06 AM 39.2 °F 33.0 °F 39.2 °F 100% 29.81 in 0.2 mi NNW 9.2 mph - 0.02 in Fog , Rain Rain
7:39 AM 39.2 °F 35.0 °F 39.2 °F 100% 29.83 in - NW 5.8 mph - 0.04 in Rain Light Rain
7:53 AM 39.9 °F 35.1 °F 39.9 °F 100% 29.65 in - Variable 6.9 mph - 0.06 in Rain Light Rain
8:34 AM 39.2 °F 34.2 °F 39.2 °F 100% 29.83 in - NNW 6.9 mph - 0.08 in Rain Rain
8:41 AM 39.2 °F 34.2 °F 39.2 °F 100% 29.83 in 0.2 mi NNW 6.9 mph - 0.09 in Fog , Rain Rain
8:53 AM 39.0 °F 34.0 °F 39.0 °F 100% 29.69 in 0.2 mi NNW 6.9 mph - 0.11 in Fog , Rain Light Rain
9:05 AM 39.2 °F 34.2 °F 39.2 °F 100% 29.81 in 0.2 mi NNW 6.9 mph - 0.01 in Fog , Rain Light Rain
9:15 AM 39.2 °F 35.0 °F 39.2 °F 100% 29.81 in 0.2 mi NNW 5.8 mph - 0.01 in Fog , Rain Light Rain
9:22 AM 39.2 °F 34.2 °F 39.2 °F 100% 29.81 in 0.5 mi North 6.9 mph - 0.02 in Fog , Rain Light Rain
9:32 AM 39.2 °F 35.9 °F 39.2 °F 100% 29.81 in 1.5 mi North 4.6 mph - 0.02 in Rain Light Rain
9:37 AM 39.2 °F 35.9 °F 39.2 °F 100% 29.80 in 4.0 mi NNW 4.6 mph - 0.03 in Rain Light Rain
9:53 AM 39.0 °F 34.8 °F 39.0 °F 100% 29.68 in 2.0 mi North 5.8 mph - 0.03 in Rain Light Rain
10:05 AM 39.2 °F - 39.2 °F 100% 29.80 in 0.8 mi Calm Calm - 0.01 in Rain Light Rain
10:14 AM 41.0 °F - 41.0 °F 100% 29.81 in - Calm Calm - 0.02 in Rain Light Rain
10:39 AM 41.0 °F - 39.2 °F 93% 29.81 in - Calm Calm - 0.04 in Rain Light Rain
10:53 AM 39.9 °F 37.8 °F 39.9 °F 100% 29.68 in - NNW 3.5 mph - 0.06 in Rain Light Rain
11:07 AM 39.2 °F - 39.2 °F 100% 29.82 in - Calm Calm - 0.01 in Rain Light Rain
11:23 AM 41.0 °F 38.0 °F 41.0 °F 100% 29.82 in - North 4.6 mph - 0.03 in Rain Light Rain
11:38 AM 39.2 °F - 39.2 °F 100% 29.82 in 0.5 mi Calm Calm - 0.04 in Fog , Rain Light Rain
11:42 AM 41.0 °F - 41.0 °F 100% 29.81 in 0.2 mi Calm Calm - 0.04 in Fog , Rain Light Rain
11:49 AM 39.2 °F - 39.2 °F 100% 29.81 in 0.5 mi Calm Calm - 0.04 in Fog , Rain Light Rain
11:50 AM 39.2 °F - 39.2 °F 100% 29.82 in 1.0 mi Calm Calm - 0.04 in Rain Light Rain
11:53 AM 39.9 °F - 39.9 °F 100% 29.67 in 2.5 mi Calm Calm - 0.05 in Rain Light Rain
11:56 AM 41.0 °F - 39.2 °F 93% 29.83 in 1.0 mi Calm Calm - 0.00 in Rain Light Rain
11:58 AM 41.0 °F - 41.0 °F 100% 29.83 in 0.2 mi Calm Calm - 0.00 in Fog , Rain Light Rain
12:06 PM 39.2 °F - 39.2 °F 100% 29.83 in 0.2 mi Calm Calm - 0.01 in Fog , Rain Light Rain
12:25 PM 39.2 °F - 39.2 °F 100% 29.84 in 0.2 mi Calm Calm - 0.03 in Fog , Rain Rain
12:30 PM 39.2 °F - 39.2 °F 100% 29.83 in 0.2 mi Calm Calm - 0.04 in Fog , Rain Rain
12:44 PM 41.0 °F 37.1 °F 41.0 °F 100% 29.81 in 0.2 mi North 5.8 mph - 0.06 in Fog , Rain Light Rain
12:53 PM 41.0 °F - 41.0 °F 100% 29.70 in 0.2 mi Calm Calm - 0.07 in Fog , Rain Light Rain
1:01 PM 39.2 °F - 39.2 °F 100% 29.84 in 1.0 mi Calm Calm - 0.00 in Rain Light Rain
1:04 PM 41.0 °F - 39.2 °F 93% 29.84 in 2.0 mi Calm Calm - 0.00 in Rain Light Rain
1:12 PM 41.0 °F - 39.2 °F 93% 29.83 in 5.0 mi Calm Calm - 0.01 in Rain Light Rain
1:14 PM 41.0 °F - 41.0 °F 100% 29.84 in 5.0 mi Calm Calm - 0.01 in Rain Light Rain
1:19 PM 41.0 °F 39.0 °F 41.0 °F 100% 29.83 in 2.5 mi North 3.5 mph - 0.02 in Rain Light Rain
1:21 PM 41.0 °F 39.0 °F 41.0 °F 100% 29.83 in 1.0 mi North 3.5 mph - 0.03 in Rain Rain
1:23 PM 41.0 °F 38.0 °F 41.0 °F 100% 29.83 in 0.5 mi North 4.6 mph - 0.03 in Fog , Rain Rain
1:31 PM 41.0 °F 38.0 °F 41.0 °F 100% 29.82 in - North 4.6 mph - 0.04 in Rain Light Rain
1:38 PM 39.2 °F - 39.2 °F 100% 29.83 in - Calm Calm - 0.04 in Rain Light Rain
1:50 PM 41.0 °F 36.4 °F 41.0 °F 100% 29.82 in - North 6.9 mph - 0.04 in   Overcast
1:53 PM 41.0 °F 37.1 °F 41.0 °F 100% 29.66 in - North 5.8 mph - 0.04 in   Overcast
1:57 PM 41.0 °F - 41.0 °F 100% 29.83 in - Calm Calm - N/A   Overcast
2:16 PM 42.8 °F - 42.8 °F 100% 29.84 in - Calm Calm - 0.02 in Rain Light Rain
2:22 PM 41.0 °F - 41.0 °F 100% 29.85 in 1.2 mi Calm Calm - 0.02 in Rain Light Rain
2:26 PM 41.0 °F - 41.0 °F 100% 29.85 in 2.0 mi Calm Calm - 0.02 in Rain Light Rain
2:38 PM 41.0 °F - 41.0 °F 100% 29.85 in 1.2 mi Calm Calm - 0.06 in Rain Rain
2:48 PM 41.0 °F - 41.0 °F 100% 29.85 in 0.2 mi Calm Calm - 0.09 in Fog , Rain Rain
2:53 PM 41.0 °F - 41.0 °F 100% 29.70 in 0.2 mi Calm Calm - 0.09 in Fog , Rain Light Rain
3:12 PM 41.0 °F 39.0 °F 41.0 °F 100% 29.86 in 0.2 mi Variable 3.5 mph - 0.00 in Fog , Rain Light Rain
3:53 PM 41.0 °F 38.0 °F 41.0 °F 100% 29.71 in 0.2 mi NW 4.6 mph - 0.01 in Fog , Rain Light Rain
4:53 PM 41.0 °F 39.0 °F 41.0 °F 100% 29.73 in - Variable 3.5 mph - 0.00 in Rain Light Rain
5:53 PM 41.0 °F 36.4 °F 41.0 °F 100% 29.69 in - NNW 6.9 mph - 0.01 in   Overcast
6:53 PM 41.0 °F 37.1 °F 41.0 °F 100% 29.73 in - NNW 5.8 mph - N/A   Overcast
7:53 PM 39.9 °F 36.7 °F 39.9 °F 100% 29.74 in - Variable 4.6 mph - 0.00 in Rain Light Rain
8:53 PM 39.9 °F 34.5 °F 39.9 °F 100% 29.69 in - NW 8.1 mph - 0.01 in   Overcast
9:53 PM 39.0 °F 34.8 °F 39.0 °F 100% 29.71 in - Variable 5.8 mph - 0.02 in Rain Light Rain
10:53 PM 37.9 °F 33.5 °F 37.9 °F 100% 29.73 in - Variable 5.8 mph - 0.03 in Rain Light Rain
11:53 PM 37.0 °F 31.0 °F 37.0 °F 100% 29.72 in - WSW 8.1 mph - 0.03 in Rain Light Rain